Orbital Elements at Epoch 2452464.5 (2002-Jul-09.0) TDB
Reference: JPL 28 (heliocentric ecliptic J2000)
Element | Value | Uncertainty (1-sigma) | Units |
e | .5307297155941175 | 1.7893e-07 | |
a | 4.08788875519719 | 6.9826e-08 | au |
q | 1.918324718770994 | 7.4401e-07 | au |
i | 5.76803446068485 | 2.2428e-05 | deg |
node | 178.4306580701276 | 0.00015104 | deg |
peri | 221.1884228945081 | 0.00016109 | deg |
M | 203.0099563613329 | 1.2848e-05 | deg |
tp | 2453780.987195370250 (2006-Feb-14.48719537) | 0.0001237 | TDB |
period | 3018.888200477945 8.27 | 7.7349e-05 2.118e-07 | d yr |
n | .1192491990736873 | 3.0554e-09 | deg/d |
Q | 6.257452791623385 | 1.0688e-07 | au |
|
| | Orbit Determination Parameters
Additional Information
|